When you browse on this site, cookies collect data to enhance your experience and personalize the content and advertising you see.
Visit our Privacy Policy to learn more. By continuing to use the site, you agree to this use of cookies and data.
EN

Hourly Weather Baranovichi

Today, 14 July, Tuesday

Time Temperature Precipitation Wind Pressure Humidity
00:00 +10°C° 0 mm 3 mps 742 mmHg 93%
01:00 +10°C° 0 mm 3 mps 742 mmHg 94%
02:00 +9°C° 0 mm 3 mps 742 mmHg 95%
03:00 +9°C° 0 mm 3 mps 742 mmHg 96%
04:00 +9°C° 0 mm 3 mps 742 mmHg 96%
05:00 +9°C° 0 mm 3 mps 742 mmHg 96%
06:00 +11°C° 0 mm 3 mps 742 mmHg 90%
07:00 +13°C° 0 mm 4 mps 742 mmHg 84%
08:00 +15°C° 0 mm 4 mps 742 mmHg 78%
09:00 +17°C° 0 mm 4 mps 742 mmHg 72%
10:00 +18°C° 0 mm 4 mps 742 mmHg 66%
11:00 +19°C° 0 mm 5 mps 741 mmHg 60%
12:00 +20°C° 0.1 mm 5 mps 741 mmHg 59%
13:00 +20°C° 0.1 mm 5 mps 741 mmHg 58%
14:00 +21°C° 0.1 mm 5 mps 741 mmHg 56%
15:00 +21°C° 0 mm 4 mps 741 mmHg 58%
16:00 +21°C° 0 mm 4 mps 741 mmHg 60%
17:00 +21°C° 0 mm 4 mps 740 mmHg 61%
18:00 +19°C° 0.1 mm 3 mps 740 mmHg 69%
19:00 +17°C° 0.1 mm 3 mps 740 mmHg 77%
20:00 +16°C° 0.1 mm 3 mps 740 mmHg 84%
21:00 +14°C° 0 mm 3 mps 741 mmHg 87%
22:00 +14°C° 0 mm 2 mps 741 mmHg 90%
23:00 +13°C° 0 mm 2 mps 741 mmHg 93%

Tomorrow, 15 July, Wednesday

Time Temperature Precipitation Wind Pressure Humidity
00:00 +13°C° 0 mm 2 mps 741 mmHg 94%
01:00 +12°C° 0 mm 2 mps 741 mmHg 95%
02:00 +12°C° 0 mm 2 mps 741 mmHg 96%
03:00 +12°C° 0 mm 2 mps 741 mmHg 96%
04:00 +12°C° 0 mm 2 mps 741 mmHg 96%
05:00 +12°C° 0 mm 2 mps 741 mmHg 96%
06:00 +13°C° 0 mm 2 mps 741 mmHg 91%
07:00 +14°C° 0 mm 3 mps 741 mmHg 87%
08:00 +17°C° 0 mm 3 mps 742 mmHg 82%
09:00 +18°C° 0 mm 3 mps 742 mmHg 76%
10:00 +19°C° 0 mm 3 mps 741 mmHg 71%
11:00 +20°C° 0 mm 3 mps 741 mmHg 66%
12:00 +21°C° 0 mm 3 mps 741 mmHg 63%
13:00 +21°C° 0 mm 3 mps 741 mmHg 61%
14:00 +22°C° 0 mm 3 mps 741 mmHg 59%
15:00 +22°C° 0 mm 3 mps 741 mmHg 60%
16:00 +22°C° 0 mm 3 mps 741 mmHg 61%
17:00 +22°C° 0 mm 3 mps 741 mmHg 63%
18:00 +20°C° 0 mm 3 mps 741 mmHg 69%
19:00 +19°C° 0 mm 2 mps 741 mmHg 75%
20:00 +17°C° 0 mm 2 mps 741 mmHg 81%
21:00 +16°C° 0 mm 1 mps 741 mmHg 84%
22:00 +15°C° 0 mm 1 mps 741 mmHg 86%
23:00 +15°C° 0 mm 1 mps 741 mmHg 88%

Day after tomorrow, 16 July, Thursday

Time Temperature Precipitation Wind Pressure Humidity
00:00 +14°C° 0 mm 1 mps 741 mmHg 89%
01:00 +14°C° 0 mm 1 mps 741 mmHg 89%
02:00 +14°C° 0 mm 1 mps 741 mmHg 90%
03:00 +14°C° 0 mm 1 mps 741 mmHg 90%
04:00 +13°C° 0 mm 1 mps 741 mmHg 90%
05:00 +13°C° 0 mm 1 mps 741 mmHg 90%
06:00 +15°C° 0 mm 1 mps 741 mmHg 85%
07:00 +18°C° 0 mm 1 mps 741 mmHg 79%
08:00 +21°C° 0 mm 1 mps 741 mmHg 74%
09:00 +22°C° 0.4 mm 1 mps 741 mmHg 70%
10:00 +23°C° 0.4 mm 1 mps 741 mmHg 66%
11:00 +24°C° 0.4 mm 1 mps 740 mmHg 63%
12:00 +25°C° 0.8 mm 1 mps 740 mmHg 63%
13:00 +25°C° 0.8 mm 2 mps 740 mmHg 63%
14:00 +25°C° 0.8 mm 2 mps 740 mmHg 62%
15:00 +24°C° 0.4 mm 2 mps 739 mmHg 65%
16:00 +24°C° 0.4 mm 2 mps 739 mmHg 68%
17:00 +24°C° 0.4 mm 3 mps 739 mmHg 71%
18:00 +23°C° 0.1 mm 2 mps 739 mmHg 75%
19:00 +20°C° 0.1 mm 2 mps 739 mmHg 80%
20:00 +19°C° 0.1 mm 2 mps 739 mmHg 84%
21:00 +18°C° 0 mm 2 mps 739 mmHg 86%
22:00 +18°C° 0 mm 2 mps 739 mmHg 87%
23:00 +17°C° 0 mm 2 mps 739 mmHg 88%

17 July, Friday

Time Temperature Precipitation Wind Pressure Humidity
00:00 +16°C° 0 mm 2 mps 739 mmHg 89%
01:00 +16°C° 0 mm 1 mps 739 mmHg 90%
02:00 +16°C° 0 mm 1 mps 739 mmHg 91%
03:00 +15°C° 0 mm 1 mps 739 mmHg 91%
04:00 +15°C° 0 mm 1 mps 739 mmHg 92%
05:00 +15°C° 0 mm 1 mps 739 mmHg 93%
06:00 +16°C° 0 mm 1 mps 739 mmHg 89%
07:00 +19°C° 0 mm 1 mps 739 mmHg 85%
08:00 +21°C° 0 mm 1 mps 739 mmHg 81%
09:00 +20°C° 1 mm 2 mps 740 mmHg 79%
10:00 +21°C° 1 mm 2 mps 740 mmHg 77%
11:00 +23°C° 1 mm 2 mps 740 mmHg 75%
12:00 +23°C° 1.4 mm 2 mps 740 mmHg 75%
13:00 +24°C° 1.4 mm 2 mps 740 mmHg 74%
14:00 +24°C° 1.4 mm 2 mps 740 mmHg 73%
15:00 +23°C° 0.4 mm 1 mps 740 mmHg 75%
16:00 +23°C° 0.4 mm 1 mps 740 mmHg 78%
17:00 +23°C° 0.4 mm 1 mps 740 mmHg 80%
18:00 +22°C° 0.1 mm 1 mps 740 mmHg 82%
19:00 +21°C° 0.1 mm 1 mps 740 mmHg 85%
20:00 +20°C° 0.1 mm 1 mps 740 mmHg 87%
21:00 +20°C° 0 mm 1 mps 740 mmHg 88%
22:00 +19°C° 0 mm 1 mps 740 mmHg 89%
23:00 +19°C° 0 mm 1 mps 740 mmHg 89%

18 July, Saturday

Time Temperature Precipitation Wind Pressure Humidity
00:00 +19°C° 0.1 mm 1 mps 740 mmHg 90%
01:00 +18°C° 0.1 mm 1 mps 740 mmHg 90%
02:00 +18°C° 0.1 mm 1 mps 740 mmHg 91%
03:00 +17°C° 0 mm 2 mps 740 mmHg 91%
04:00 +17°C° 0 mm 2 mps 740 mmHg 91%
05:00 +16°C° 0 mm 2 mps 740 mmHg 91%
06:00 +17°C° 0 mm 2 mps 740 mmHg 87%
07:00 +19°C° 0 mm 2 mps 740 mmHg 83%
08:00 +20°C° 0 mm 2 mps 740 mmHg 79%
09:00 +21°C° 0.1 mm 2 mps 740 mmHg 75%
10:00 +22°C° 0.1 mm 3 mps 741 mmHg 72%
11:00 +24°C° 0.1 mm 3 mps 741 mmHg 68%
12:00 +24°C° 0.1 mm 3 mps 741 mmHg 70%
13:00 +23°C° 0.1 mm 2 mps 741 mmHg 72%
14:00 +23°C° 0.1 mm 2 mps 741 mmHg 74%
15:00 +21°C° 0.2 mm 2 mps 741 mmHg 76%
16:00 +22°C° 0.2 mm 1 mps 741 mmHg 79%
17:00 +21°C° 0.2 mm 1 mps 741 mmHg 81%
18:00 +21°C° 0.3 mm 1 mps 741 mmHg 84%
19:00 +20°C° 0.3 mm 1 mps 741 mmHg 87%
20:00 +19°C° 0.3 mm 1 mps 741 mmHg 90%
21:00 +19°C° 0.1 mm 1 mps 741 mmHg 90%
22:00 +17°C° 0.1 mm 2 mps 741 mmHg 90%
23:00 +17°C° 0.1 mm 2 mps 741 mmHg 90%

19 July, Sunday

Time Temperature Precipitation Wind Pressure Humidity
00:00 +18°C° 0.3 mm 1 mps 741 mmHg 92%
01:00 +18°C° 0.3 mm 1 mps 741 mmHg 93%
02:00 +18°C° 0.3 mm 1 mps 741 mmHg 95%
03:00 +18°C° 0.8 mm 1 mps 741 mmHg 95%
04:00 +16°C° 0.8 mm 1 mps 741 mmHg 96%
05:00 +16°C° 0.8 mm 1 mps 741 mmHg 97%
06:00 +18°C° 0.2 mm 1 mps 741 mmHg 96%
07:00 +17°C° 0.2 mm 2 mps 741 mmHg 95%
08:00 +18°C° 0.2 mm 3 mps 741 mmHg 94%
09:00 +18°C° 0.3 mm 3 mps 741 mmHg 92%
10:00 +19°C° 0.3 mm 2 mps 741 mmHg 90%
11:00 +19°C° 0.3 mm 2 mps 741 mmHg 88%
12:00 +21°C° 0.3 mm 2 mps 740 mmHg 82%
13:00 +23°C° 0.3 mm 2 mps 740 mmHg 76%
14:00 +24°C° 0.3 mm 2 mps 740 mmHg 70%
15:00 +24°C° 1.3 mm 2 mps 740 mmHg 74%
16:00 +23°C° 1.3 mm 2 mps 739 mmHg 78%
17:00 +23°C° 1.3 mm 2 mps 739 mmHg 82%
18:00 +21°C° 0.4 mm 2 mps 739 mmHg 84%
19:00 +20°C° 0.4 mm 2 mps 739 mmHg 86%
20:00 +20°C° 0.4 mm 1 mps 739 mmHg 89%
21:00 +19°C° 0.2 mm 2 mps 739 mmHg 90%
22:00 +18°C° 0.2 mm 2 mps 739 mmHg 90%
23:00 +18°C° 0.2 mm 2 mps 739 mmHg 91%
Show more